Location: Linz
(48.3300°N, 14.3000°E)
Time: 04:06:57
(UTC+01:00)

Vanguard 1 - All Passes

Search period start: 22 February 2018 00:00
Search period end: 04 March 2018 00:00
Orbit: 650 x 3833 km, 34.2° (Epoch: 21 February)

Date Brightness Start Highest point End Pass type
(mag) Time Alt. Az. Time Alt. Az. Time Alt. Az.
22 Feb - 11:46:07 10° S 11:53:36 15° SSE 11:59:35 10° ESE daylight
22 Feb - 14:04:11 10° SW 14:15:07 27° SSE 14:22:05 10° ESE daylight
22 Feb - 16:27:09 10° WSW 16:35:31 29° S 16:40:54 10° SE daylight
22 Feb - 18:51:16 10° WSW 18:54:33 14° SSW 18:57:17 10° S visible
23 Feb - 12:04:02 10° SSW 12:14:32 19° SSE 12:22:08 10° ESE daylight
23 Feb - 14:24:31 10° SW 14:36:00 31° S 14:43:04 10° ESE daylight
23 Feb - 16:48:10 10° WSW 16:56:12 28° SSW 17:01:25 10° SE daylight
23 Feb - 19:14:03 10° SW 19:14:57 10° SW 19:15:47 10° SSW visible
24 Feb - 12:23:03 10° SSW 12:35:28 24° SSE 12:43:52 10° ESE daylight
24 Feb - 14:45:07 10° SW 14:56:51 34° S 15:03:54 10° ESE daylight
24 Feb - 17:09:19 10° WSW 17:16:49 26° SSW 17:21:49 10° SE daylight
25 Feb - 10:26:19 10° S 10:34:18 14° SE 10:40:56 10° ESE daylight
25 Feb - 12:42:42 10° SSW 12:56:24 29° SSE 13:05:12 10° ESE daylight
25 Feb - 15:05:57 10° WSW 15:17:40 35° S 15:24:37 10° ESE daylight
25 Feb - 17:30:37 10° WSW 17:37:21 22° SSW 17:42:00 10° SSE daylight
26 Feb - 10:43:23 10° S 10:55:10 19° SSE 11:04:09 10° ESE daylight
26 Feb - 13:02:49 10° SW 13:17:20 33° SSE 13:26:17 10° ESE daylight
26 Feb - 15:26:57 10° WSW 15:38:26 35° S 15:45:15 10° SE daylight
26 Feb - 17:52:08 10° WSW 17:57:47 18° SSW 18:01:56 10° S daylight
27 Feb - 11:01:52 10° SSW 11:16:04 24° SSE 11:26:13 10° ESE daylight
27 Feb - 13:23:16 10° SW 13:38:15 37° S 13:47:13 10° ESE daylight
27 Feb - 15:48:04 10° WSW 15:59:09 34° SSW 16:05:47 10° SE daylight
27 Feb - 18:14:05 10° WSW 18:18:07 14° SW 18:21:21 10° S visible
28 Feb - 09:08:02 10° SSE 09:14:33 12° SE 09:20:26 10° ESE daylight
28 Feb - 11:21:08 10° SSW 11:36:59 29° SSE 11:47:45 10° ESE daylight
28 Feb - 13:43:59 10° WSW 13:59:09 40° S 14:08:02 10° ESE daylight
28 Feb - 16:09:18 10° WSW 16:19:46 32° SSW 16:26:11 10° SE daylight
01 Mar - 09:23:31 10° S 09:35:19 17° SE 09:45:02 10° ESE daylight
01 Mar - 11:40:56 10° SW 11:57:56 34° SSE 12:09:00 10° ESE daylight
01 Mar - 14:04:54 10° WSW 14:20:01 41° S 14:28:45 10° ESE daylight
01 Mar - 16:30:40 10° WSW 16:40:18 28° SSW 16:46:24 10° SSE daylight
02 Mar - 09:41:15 10° S 09:56:06 23° SE 10:07:40 10° ESE daylight
02 Mar - 12:01:09 10° SW 12:18:53 39° SSE 12:30:03 10° ESE daylight
02 Mar - 14:25:59 10° WSW 14:40:50 41° S 14:49:23 10° ESE daylight
02 Mar - 16:52:12 10° W 17:00:43 23° SSW 17:06:25 10° SSE daylight
03 Mar - 10:00:01 10° SSW 10:16:56 28° SSE 10:29:33 10° E daylight
03 Mar - 12:21:40 10° SW 12:39:50 42° S 12:50:58 10° ESE daylight
03 Mar - 14:47:11 10° WSW 15:01:35 40° SSW 15:09:55 10° SE daylight
03 Mar - 17:14:00 10° WSW 17:21:01 19° SW 17:26:04 10° S daylight
